SL-12 R/B(2), 28918

Orbit data source: Space-Track

SL-12 R/B(2), 28918 is space debris in MEO originally from a launch on Sun, 25 Dec 2005 UTC launched from the Tyuratam Missile And Space Complex (TTMTR). Debris objects in space refer to the collection of defunct objects orbiting the Earth. Examples of debris include non-operational satellites, rocket bodies, and fragments generated from explosions, collisions, or faulty payload assembly.

Loading next visibility...
Identifier
28918, 2005-050D
Orbit
MEO
Country
Flag of CISCIS
Related business
Manufacturer
RKKE
Mission
Spacecraft
Bus & Motor
BLOK DM2, 11D58M
Mass
2,560 kg wet, 2,560 kg dry
Launch date (UTC)
2005-12-25 (20 years ago)
Launch vehicle
Unknown
Launch site
Tyuratam Missile And Space Complex (TTMTR)
Object type
Payload
Rocket body
Debris
Shape & HBR
Cyl, 3.1 m
Radar Cross Section
23.684 m², Large (>1 m²)

Expand to show TLE details & history
Last TLE update: 3 days ago

TLE from 3 days ago
0 SL-12 R/B(2)
1 28918U 05050D   25257.94149433 -.00000059  00000-0  00000-0 0  9991
2 28918  65.7025 324.4016 0010954 210.5613 146.8278  2.13506683153797
Epoch: 2025-09-14T22:35Z
TLE epoch observation values (Epoch: 2025-09-14T22:35:45.11Z)
Latitude
-2.37878°
Longitude
-9.75292°
Altitude
19,121.962 km
Speed
3.952 km/s
True Right ascension
21h 33m 21s
True Declination
-2° 22' 29"
Sunlit
Object was in daylight at epoch
Visualization orbit readout
Latitude
Unknown
Longitude
Unknown
Altitude
Unknown
Speed
Unknown
Apparent Right ascension
Unknown
Apparent Declination
Unknown
Sunlit
N/A
Visualization observer readout
Local Sidereal Time
20:36:59
Azimuth
Unknown
Elevation
Unknown
Doppler factor
Unknown
Orbital elements
Apogee altitude
19,125.141 km
Perigee altitude
19,069.33 km
Semi-major axis
25,475.372 km
Eccentricity
0.0011
Inclination
65.7025°
RAAN
324.4016°
Arg. of periapsis
210.5613°
True anomaly
146.8964°
Mean anomaly
146.8278°
Eccentric anomaly
146.86211°
Mean motion
0.53378 °/min
Orbital period
674.44 mins
BSTAR
0
Loading maneuver chart data...
Computing Atmospheric mass density...
Loading historical data...
Loading historical data...
Loading historical data...
Loading historical data...
Loading historical data...
Loading historical data...
Loading historical data...

Documentation

Showing up to 5 results
|